| time (UTC) | temp F | wind direction | speed knots | gust knots | rain 1hr in | rain 24hr in | rain mn in | humidity % | barometer mb |
| 20260510104138 | 66 | 54 | 0.9 | 1.7 | 0.00 | 0.00 | 0.00 | 96 | 1012.1 |
| 20260510103635 | 66 | 49 | 0.0 | 1.7 | 0.00 | 0.00 | 0.00 | 96 | 1012.4 |
| 20260510103131 | 66 | 48 | 2.6 | 2.6 | 0.00 | 0.00 | 0.00 | 96 | 1012.2 |
| 20260510102626 | 66 | 26 | 0.9 | 1.7 | 0.00 | 0.00 | 0.00 | 96 | 1012.2 |
| 20260510102122 | 66 | 37 | 0.9 | 1.7 | 0.00 | 0.00 | 0.00 | 96 | 1012.3 |
| 20260510101620 | 66 | 23 | 0.0 | 0.0 | 0.00 | 0.00 | 0.00 | 96 | 1012.2 |
| 20260510101118 | 66 | 23 | 0.0 | 0.9 | 0.00 | 0.00 | 0.00 | 96 | 1012.1 |
| 20260510100614 | 66 | 25 | 0.9 | 0.9 | 0.00 | 0.00 | 0.00 | 96 | 1012.2 |
| 20260510100112 | 66 | 27 | 0.0 | 0.9 | 0.00 | 0.00 | 0.00 | 96 | 1012.1 |
| 20260510095607 | 66 | 26 | 0.0 | 0.0 | 0.00 | 0.00 | 0.00 | 96 | 1012.0 |
| 20260510095102 | 66 | 28 | 0.0 | 0.9 | 0.00 | 0.00 | 0.00 | 96 | 1012.0 |
| 20260510094601 | 66 | 22 | 0.0 | 0.9 | 0.00 | 0.00 | 0.00 | 96 | 1011.9 |
| 20260510094057 | 66 | 20 | 0.0 | 0.0 | 0.00 | 0.00 | 0.00 | 96 | 1012.0 |
| 20260510093553 | 66 | 20 | 0.0 | 0.0 | 0.00 | 0.00 | 0.00 | 96 | 1012.3 |
| 20260510093050 | 66 | 20 | 0.0 | 0.0 | 0.00 | 0.00 | 0.00 | 96 | 1012.1 |
| 20260510092547 | 66 | 20 | 0.0 | 0.0 | 0.00 | 0.00 | 0.00 | 96 | 1012.1 |
| 20260510092046 | 66 | 19 | 0.0 | 0.0 | 0.00 | 0.00 | 0.00 | 96 | 1011.8 |
| 20260510091544 | 66 | 19 | 0.0 | 0.9 | 0.00 | 0.00 | 0.00 | 96 | 1012.0 |
| 20260510091039 | 66 | 19 | 0.0 | 0.0 | 0.00 | 0.00 | 0.00 | 96 | 1012.1 |
| 20260510090537 | 66 | 18 | 0.0 | 0.0 | 0.00 | 0.00 | 0.00 | 96 | 1012.2 |
| 20260510090032 | 66 | 19 | 0.0 | 0.0 | 0.00 | 0.00 | 0.00 | 96 | 1011.8 |
| 20260510085527 | 66 | 18 | 0.0 | 0.0 | 0.00 | 0.00 | 0.00 | 96 | 1011.9 |
| 20260510085023 | 66 | 19 | 0.0 | 0.0 | 0.00 | 0.00 | 0.00 | 96 | 1012.0 |
| 20260510084520 | 66 | 19 | 0.0 | 0.9 | 0.00 | 0.00 | 0.00 | 96 | 1012.0 |
| 20260510084017 | 66 | 17 | 0.0 | 0.9 | 0.00 | 0.00 | 0.00 | 96 | 1012.0 |
| 20260510083513 | 66 | 18 | 0.0 | 0.9 | 0.00 | 0.00 | 0.00 | 96 | 1012.0 |
| 20260510083009 | 66 | 18 | 0.0 | 0.0 | 0.00 | 0.00 | 0.00 | 96 | 1012.1 |
| 20260510082507 | 66 | 18 | 0.0 | 0.9 | 0.00 | 0.00 | 0.00 | 96 | 1011.9 |
| 20260510082006 | 66 | 19 | 0.0 | 0.0 | 0.00 | 0.00 | 0.00 | 96 | 1012.1 |
| 20260510081502 | 66 | 19 | 0.0 | 0.0 | 0.00 | 0.00 | 0.00 | 96 | 1011.9 |
| 20260510080958 | 66 | 18 | 0.0 | 0.9 | 0.00 | 0.00 | 0.00 | 96 | 1011.8 |
| 20260510080456 | 66 | 21 | 0.9 | 1.7 | 0.00 | 0.00 | 0.00 | 96 | 1011.6 |
| 20260510075954 | 66 | 25 | 0.9 | 1.7 | 0.00 | 0.00 | 0.00 | 96 | 1011.6 |
| 20260510075452 | 66 | 22 | 1.7 | 2.6 | 0.00 | 0.00 | 0.00 | 96 | 1011.4 |
| 20260510074948 | 66 | 24 | 1.7 | 1.7 | 0.00 | 0.00 | 0.00 | 96 | 1011.6 |
| 20260510074446 | 66 | 26 | 0.9 | 0.9 | 0.00 | 0.00 | 0.00 | 96 | 1011.5 |
| 20260510073942 | 66 | 25 | 0.9 | 0.9 | 0.00 | 0.00 | 0.00 | 96 | 1011.6 |
| 20260510073437 | 66 | 35 | 0.9 | 0.9 | 0.00 | 0.00 | 0.00 | 96 | 1011.5 |
| 20260510072934 | 66 | 18 | 0.0 | 0.0 | 0.00 | 0.00 | 0.00 | 96 | 1011.6 |
| 20260510072431 | 66 | 10 | 0.0 | 0.0 | 0.00 | 0.00 | 0.00 | 96 | 1011.5 |
| 20260510071926 | 66 | 19 | 0.9 | 0.9 | 0.00 | 0.00 | 0.00 | 96 | 1011.4 |
| 20260510071423 | 66 | 24 | 0.9 | 1.7 | 0.00 | 0.00 | 0.00 | 96 | 1011.5 |
| 20260510070921 | 66 | 21 | 0.9 | 0.9 | 0.00 | 0.00 | 0.00 | 96 | 1011.5 |
| 20260510070419 | 66 | 10 | 1.7 | 1.7 | 0.00 | 0.00 | 0.00 | 96 | 1011.5 |
| 20260510065914 | 66 | 4 | 0.9 | 0.9 | 0.00 | 0.00 | 0.00 | 96 | 1011.5 |
| 20260510065410 | 66 | 10 | 0.9 | 0.9 | 0.00 | 0.00 | 0.00 | 96 | 1011.3 |
| 20260510064907 | 67 | 6 | 0.9 | 1.7 | 0.00 | 0.00 | 0.00 | 96 | 1011.6 |
| 20260510064405 | 66 | 1 | 0.0 | 0.0 | 0.00 | 0.00 | 0.00 | 96 | 1011.4 |
| 20260510063901 | 66 | 2 | 0.0 | 0.0 | 0.00 | 0.00 | 0.00 | 96 | 1011.6 |
| 20260510063357 | 67 | 3 | 0.9 | 0.9 | 0.00 | 0.00 | 0.00 | 96 | 1011.4 |
| 20260510062854 | 67 | 33 | 0.0 | 0.9 | 0.00 | 0.00 | 0.00 | 96 | 1011.4 |
| 20260510062349 | 67 | 40 | 0.0 | 0.9 | 0.00 | 0.00 | 0.00 | 96 | 1011.5 |
| 20260510061845 | 67 | 59 | 0.9 | 1.7 | 0.00 | 0.00 | 0.00 | 96 | 1011.5 |
| 20260510061342 | 67 | 43 | 0.0 | 0.9 | 0.00 | 0.00 | 0.00 | 96 | 1011.6 |
| 20260510060838 | 67 | 27 | 0.0 | 1.7 | 0.00 | 0.00 | 0.00 | 96 | 1011.7 |
| 20260510060335 | 67 | 9 | 0.9 | 0.9 | 0.00 | 0.00 | 0.00 | 96 | 1011.6 |
| 20260510055832 | 67 | 19 | 0.9 | 0.9 | 0.00 | 0.00 | 0.00 | 96 | 1011.9 |
| 20260510055331 | 67 | 25 | 1.7 | 2.6 | 0.00 | 0.00 | 0.00 | 96 | 1011.7 |
| 20260510054825 | 67 | 13 | 2.6 | 2.6 | 0.00 | 0.00 | 0.00 | 96 | 1011.8 |
| 20260510054321 | 67 | 11 | 2.6 | 2.6 | 0.00 | 0.00 | 0.00 | 96 | 1012.0 |
| 20260510053816 | 67 | 328 | 2.6 | 4.3 | 0.00 | 0.00 | 0.00 | 96 | 1012.0 |
| 20260510053311 | 67 | 0 | 0.9 | 5.2 | 0.00 | 0.00 | 0.00 | 96 | 1011.9 |
| 20260510052808 | 67 | 347 | 2.6 | 4.3 | 0.00 | 0.00 | 0.00 | 96 | 1011.8 |
| 20260510052306 | 67 | 4 | 4.3 | 5.2 | 0.00 | 0.00 | 0.00 | 96 | 1011.4 |
| 20260510051800 | 68 | 24 | 2.6 | 4.3 | 0.00 | 0.00 | 0.00 | 96 | 1011.5 |
| 20260510051257 | 68 | 44 | 1.7 | 2.6 | 0.00 | 0.00 | 0.00 | 96 | 1011.6 |
| 20260510050754 | 68 | 358 | 2.6 | 4.3 | 0.00 | 0.00 | 0.00 | 96 | 1011.3 |
| 20260510050251 | 68 | 21 | 2.6 | 4.3 | 0.00 | 0.00 | 0.00 | 96 | 1011.3 |
| 20260510045748 | 68 | 79 | 1.7 | 2.6 | 0.00 | 1.59 | 1.59 | 96 | 1010.9 |
| 20260510045244 | 68 | 138 | 0.9 | 2.6 | 0.00 | 1.59 | 1.59 | 96 | 1010.9 |
| 20260510044741 | 68 | 152 | 1.7 | 2.6 | 0.00 | 1.59 | 1.59 | 96 | 1010.8 |
| 20260510044239 | 68 | 216 | 1.7 | 4.3 | 0.00 | 1.59 | 1.59 | 96 | 1010.6 |
| 20260510043734 | 68 | 178 | 2.6 | 4.3 | 0.00 | 1.59 | 1.59 | 96 | 1010.6 |
| 20260510043231 | 68 | 196 | 2.6 | 5.2 | 0.00 | 1.59 | 1.59 | 96 | 1010.7 |
| 20260510042728 | 68 | 210 | 2.6 | 5.2 | 0.00 | 1.59 | 1.59 | 96 | 1010.6 |
| 20260510042224 | 68 | 255 | 0.9 | 5.2 | 0.00 | 1.59 | 1.59 | 96 | 1010.7 |
| 20260510041721 | 68 | 223 | 1.7 | 2.6 | 0.00 | 1.59 | 1.59 | 96 | 1010.8 |
| 20260510041218 | 68 | 232 | 2.6 | 5.2 | 0.00 | 1.59 | 1.59 | 96 | 1011.0 |
| 20260510040709 | 68 | 209 | 2.6 | 2.6 | 0.00 | 1.59 | 1.59 | 96 | 1011.1 |
| 20260510040206 | 68 | 207 | 1.7 | 4.3 | 0.00 | 1.59 | 1.59 | 96 | 1011.4 |
| 20260510035701 | 68 | 240 | 1.7 | 6.1 | 0.00 | 1.59 | 1.59 | 96 | 1011.5 |
| 20260510035157 | 68 | 231 | 1.7 | 4.3 | 0.00 | 1.59 | 1.59 | 96 | 1011.8 |
| 20260510034653 | 68 | 256 | 0.9 | 5.2 | 0.00 | 1.59 | 1.59 | 96 | 1011.7 |
| 20260510034151 | 68 | 183 | 3.5 | 4.3 | 0.00 | 1.59 | 1.59 | 96 | 1011.7 |
| 20260510033647 | 68 | 240 | 1.7 | 4.3 | 0.00 | 1.59 | 1.59 | 96 | 1011.8 |
| 20260510033145 | 68 | 252 | 2.6 | 4.3 | 0.00 | 1.59 | 1.59 | 96 | 1011.7 |
| 20260510032641 | 68 | 205 | 1.7 | 4.3 | 0.00 | 1.59 | 1.59 | 96 | 1011.8 |
| 20260510032137 | 68 | 202 | 0.9 | 2.6 | 0.00 | 1.59 | 1.59 | 96 | 1011.9 |
| 20260510031631 | 68 | 297 | 0.9 | 0.9 | 0.00 | 1.59 | 1.59 | 96 | 1012.2 |
| 20260510031129 | 68 | 314 | 0.0 | 0.0 | 0.00 | 1.59 | 1.59 | 96 | 1012.3 |
| 20260510030623 | 68 | 314 | 0.0 | 0.0 | 0.00 | 1.59 | 1.59 | 96 | 1012.5 |
| 20260510030121 | 68 | 317 | 0.0 | 0.9 | 0.00 | 1.59 | 1.59 | 96 | 1012.5 |
| 20260510025618 | 68 | 305 | 0.0 | 0.9 | 0.00 | 1.59 | 1.59 | 96 | 1012.6 |
| 20260510025115 | 68 | 181 | 0.0 | 0.9 | 0.00 | 1.59 | 1.59 | 96 | 1012.6 |
| 20260510024612 | 68 | 311 | 0.9 | 2.6 | 0.00 | 1.59 | 1.59 | 96 | 1012.7 |
| 20260510024108 | 68 | 331 | 0.9 | 1.7 | 0.00 | 1.59 | 1.59 | 96 | 1012.4 |
| 20260510023604 | 68 | 353 | 0.0 | 0.0 | 0.00 | 1.59 | 1.59 | 96 | 1012.7 |
| 20260510023102 | 68 | 354 | 0.0 | 0.0 | 0.00 | 1.59 | 1.59 | 96 | 1012.6 |
| 20260510022601 | 68 | 354 | 0.0 | 0.0 | 0.00 | 1.59 | 1.59 | 96 | 1012.6 |
| 20260510022056 | 68 | 354 | 0.0 | 0.9 | 0.00 | 1.59 | 1.59 | 96 | 1012.6 |
| 20260510021552 | 68 | 358 | 0.9 | 0.9 | 0.00 | 1.59 | 1.59 | 96 | 1012.3 |
| 20260510021050 | 68 | 358 | 0.0 | 0.0 | 0.00 | 1.59 | 1.59 | 96 | 1012.5 |
| 20260510020544 | 68 | 358 | 0.0 | 0.0 | 0.00 | 1.59 | 1.59 | 96 | 1012.2 |
| 20260510020040 | 68 | 358 | 0.0 | 0.0 | 0.00 | 1.59 | 1.59 | 96 | 1012.1 |
| 20260510015536 | 68 | 358 | 0.0 | 0.0 | 0.00 | 1.59 | 1.59 | 96 | 1012.1 |
| 20260510015032 | 68 | 358 | 0.0 | 0.0 | 0.00 | 1.59 | 1.59 | 96 | 1012.3 |
| 20260510014528 | 68 | 358 | 0.0 | 0.0 | 0.00 | 1.59 | 1.59 | 96 | 1012.1 |
| 20260510014026 | 68 | 358 | 0.0 | 0.9 | 0.00 | 1.59 | 1.59 | 96 | 1011.9 |
| 20260510013520 | 68 | 353 | 0.9 | 1.7 | 0.00 | 1.59 | 1.59 | 96 | 1012.2 |
| 20260510013016 | 68 | 4 | 0.0 | 0.9 | 0.00 | 1.59 | 1.59 | 96 | 1012.0 |
| 20260510012510 | 68 | 5 | 0.0 | 0.0 | 0.00 | 1.59 | 1.59 | 96 | 1012.0 |
| 20260510012007 | 68 | 13 | 0.0 | 0.0 | 0.00 | 1.59 | 1.59 | 96 | 1011.8 |
| 20260510011501 | 68 | 13 | 0.0 | 0.0 | 0.00 | 1.59 | 1.59 | 96 | 1011.8 |
| 20260510010957 | 68 | 13 | 0.0 | 0.9 | 0.00 | 1.59 | 1.59 | 96 | 1011.3 |
| 20260510010455 | 68 | 13 | 0.0 | 0.9 | 0.00 | 1.59 | 1.59 | 96 | 1011.6 |
| 20260510005951 | 68 | 22 | 0.9 | 2.6 | 0.00 | 1.59 | 1.59 | 96 | 1011.3 |
| 20260510005447 | 68 | 9 | 0.9 | 1.7 | 0.00 | 1.59 | 1.59 | 96 | 1011.6 |
| 20260510004945 | 68 | 72 | 0.9 | 2.6 | 0.00 | 1.59 | 1.59 | 96 | 1011.3 |
| 20260510004442 | 68 | 147 | 2.6 | 4.3 | 0.00 | 1.59 | 1.59 | 96 | 1011.2 |
| 20260510003940 | 68 | 80 | 0.9 | 2.6 | 0.00 | 1.59 | 1.59 | 96 | 1011.2 |
| 20260510003437 | 68 | 81 | 0.9 | 4.3 | 0.00 | 1.59 | 1.59 | 96 | 1011.1 |
| 20260510002936 | 68 | 142 | 2.6 | 4.3 | 0.00 | 1.59 | 1.59 | 96 | 1011.0 |
| 20260510002433 | 68 | 121 | 1.7 | 4.3 | 0.00 | 1.59 | 1.59 | 96 | 1010.8 |
| 20260510001929 | 68 | 161 | 2.6 | 2.6 | 0.00 | 1.59 | 1.59 | 96 | 1010.9 |
| 20260510001427 | 68 | 179 | 2.6 | 4.3 | 0.00 | 1.59 | 1.59 | 96 | 1010.7 |
| 20260510000925 | 68 | 183 | 3.5 | 5.2 | 0.00 | 1.59 | 1.59 | 96 | 1010.5 |
| 20260510000421 | 68 | 154 | 2.6 | 4.3 | 0.00 | 1.59 | 1.59 | 96 | 1010.6 |
| 20260509235917 | 68 | 156 | 1.7 | 1.7 | 0.00 | 1.59 | 1.59 | 96 | 1010.9 |
| 20260509235414 | 68 | 127 | 0.9 | 2.6 | 0.00 | 1.59 | 1.59 | 96 | 1010.9 |
| 20260509234910 | 68 | 180 | 1.7 | 2.6 | 0.00 | 1.59 | 1.59 | 96 | 1010.7 |
| 20260509234407 | 68 | 156 | 1.7 | 1.7 | 0.00 | 1.59 | 1.59 | 96 | 1010.7 |
| 20260509233906 | 68 | 124 | 0.9 | 4.3 | 0.00 | 1.59 | 1.59 | 96 | 1010.8 |
| 20260509233403 | 68 | 122 | 1.7 | 2.6 | 0.00 | 1.59 | 1.59 | 96 | 1010.7 |
| 20260509232858 | 68 | 140 | 1.7 | 4.3 | 0.00 | 1.59 | 1.59 | 96 | 1010.8 |
| 20260509232356 | 68 | 77 | 0.9 | 1.7 | 0.00 | 1.59 | 1.59 | 96 | 1011.2 |
| 20260509231852 | 68 | 47 | 0.9 | 0.9 | 0.00 | 1.59 | 1.59 | 96 | 1010.7 |
| 20260509231349 | 68 | 75 | 0.9 | 2.6 | 0.00 | 1.59 | 1.59 | 96 | 1010.8 |
| 20260509230841 | 68 | 69 | 1.7 | 1.7 | 0.00 | 1.59 | 1.59 | 96 | 1010.8 |
| 20260509230338 | 67 | 92 | 2.6 | 2.6 | 0.00 | 1.59 | 1.59 | 96 | 1010.5 |
| 20260509225833 | 67 | 81 | 2.6 | 2.6 | 0.00 | 1.59 | 1.59 | 96 | 1010.8 |
| 20260509225331 | 67 | 53 | 0.9 | 1.7 | 0.07 | 1.59 | 1.59 | 96 | 1011.1 |
| 20260509224827 | 67 | 32 | 0.0 | 0.9 | 0.19 | 1.59 | 1.59 | 96 | 1011.1 |
| 20260509224322 | 67 | 9 | 0.0 | 0.9 | 0.12 | 1.58 | 1.58 | 96 | 1011.4 |
| 20260509223819 | 67 | 8 | 0.9 | 1.7 | 0.00 | 1.56 | 1.56 | 96 | 1011.3 |
| 20260509223316 | 67 | 338 | 0.9 | 0.9 | 0.00 | 1.56 | 1.56 | 96 | 1011.6 |
| 20260509222813 | 68 | 347 | 0.0 | 0.0 | 0.00 | 1.56 | 1.56 | 96 | 1011.1 |
| 20260509222308 | 68 | 353 | 0.0 | 0.9 | 0.00 | 1.56 | 1.56 | 96 | 1011.2 |
| 20260509221804 | 67 | 352 | 0.0 | 0.9 | 0.00 | 1.56 | 1.56 | 96 | 1011.1 |
| 20260509221302 | 67 | 3 | 0.0 | 0.0 | 0.00 | 1.56 | 1.56 | 96 | 1010.9 |
| 20260509220756 | 67 | 3 | 0.0 | 0.0 | 0.05 | 1.56 | 1.56 | 96 | 1010.9 |
| 20260509220253 | 67 | 19 | 0.0 | 0.9 | 0.05 | 1.56 | 1.56 | 96 | 1010.8 |
| 20260509215748 | 67 | 4 | 0.0 | 0.9 | 0.07 | 1.55 | 1.55 | 96 | 1010.7 |
| 20260509215245 | 67 | 36 | 0.0 | 1.7 | 0.07 | 1.55 | 1.55 | 96 | 1010.6 |
| 20260509214742 | 67 | 37 | 0.0 | 0.9 | 0.05 | 1.54 | 1.54 | 96 | 1010.8 |
| 20260509214239 | 67 | 40 | 0.9 | 0.9 | 0.05 | 1.54 | 1.54 | 96 | 1010.9 |
| 20260509213736 | 67 | 43 | 0.9 | 2.6 | 0.12 | 1.53 | 1.53 | 96 | 1010.8 |
| 20260509213232 | 67 | 68 | 0.9 | 2.6 | 0.12 | 1.52 | 1.52 | 96 | 1011.1 |
| 20260509212730 | 67 | 49 | 1.7 | 1.7 | 0.12 | 1.51 | 1.51 | 96 | 1011.0 |
| 20260509212227 | 67 | 32 | 0.9 | 1.7 | 0.12 | 1.50 | 1.50 | 96 | 1011.0 |
| 20260509211722 | 67 | 9 | 1.7 | 1.7 | 0.05 | 1.48 | 1.48 | 96 | 1011.3 |
| 20260509211219 | 67 | 354 | 1.7 | 2.6 | 0.07 | 1.47 | 1.47 | 96 | 1011.4 |
| 20260509210715 | 67 | 332 | 0.9 | 0.9 | 0.07 | 1.47 | 1.47 | 96 | 1011.5 |
| 20260509210213 | 67 | 358 | 0.0 | 0.0 | 0.00 | 1.46 | 1.46 | 96 | 1010.9 |
| 20260509205713 | 67 | 341 | 0.0 | 0.9 | 0.07 | 1.46 | 1.46 | 96 | 1011.1 |
| 20260509205212 | 66 | 336 | 0.0 | 1.7 | 0.07 | 1.46 | 1.46 | 96 | 1010.9 |
| 20260509204709 | 66 | 189 | 1.7 | 2.6 | 0.00 | 1.45 | 1.45 | 96 | 1010.8 |
| 20260509204205 | 66 | 73 | 2.6 | 6.1 | 0.00 | 1.45 | 1.45 | 96 | 1010.7 |
| 20260509203701 | 67 | 91 | 2.6 | 4.3 | 0.00 | 1.45 | 1.45 | 96 | 1010.3 |
| 20260509203200 | 67 | 107 | 1.7 | 4.3 | 0.00 | 1.45 | 1.45 | 96 | 1010.6 |
| 20260509202655 | 66 | 96 | 4.3 | 5.2 | 0.00 | 1.45 | 1.45 | 96 | 1010.4 |
| 20260509202150 | 66 | 109 | 4.3 | 7.0 | 0.00 | 1.45 | 1.45 | 96 | 1010.2 |
| 20260509201646 | 67 | 83 | 2.6 | 2.6 | 0.00 | 1.45 | 1.45 | 96 | 1010.5 |
| 20260509201143 | 66 | 112 | 1.7 | 5.2 | 0.00 | 1.45 | 1.45 | 96 | 1010.4 |
| 20260509200639 | 66 | 118 | 4.3 | 7.0 | 0.00 | 1.45 | 1.45 | 96 | 1010.4 |
| 20260509200134 | 66 | 110 | 4.3 | 6.1 | 0.00 | 1.45 | 1.45 | 96 | 1010.7 |
| 20260509195630 | 66 | 92 | 3.5 | 5.2 | 0.00 | 1.45 | 1.45 | 96 | 1010.9 |
| 20260509195125 | 67 | 80 | 1.7 | 4.3 | 0.05 | 1.45 | 1.45 | 96 | 1011.1 |
| 20260509194625 | 66 | 103 | 1.7 | 7.8 | 0.05 | 1.45 | 1.45 | 96 | 1011.2 |
| 20260509194122 | 66 | 77 | 2.6 | 4.3 | 0.07 | 1.44 | 1.44 | 96 | 1011.2 |
| 20260509193618 | 66 | 68 | 1.7 | 2.6 | 0.07 | 1.44 | 1.44 | 96 | 1011.6 |
| 20260509193114 | 66 | 65 | 0.9 | 1.7 | 0.05 | 1.43 | 1.43 | 96 | 1012.1 |
| 20260509192611 | 66 | 43 | 0.9 | 0.9 | 0.05 | 1.43 | 1.43 | 96 | 1012.1 |
| 20260509192106 | 67 | 39 | 0.9 | 1.7 | 0.07 | 1.42 | 1.42 | 96 | 1012.1 |
| 20260509191601 | 67 | 35 | 0.0 | 0.9 | 0.07 | 1.42 | 1.42 | 96 | 1012.2 |
| 20260509191057 | 67 | 91 | 2.6 | 2.6 | 0.05 | 1.41 | 1.41 | 96 | 1012.0 |
| 20260509190554 | 67 | 91 | 2.6 | 4.3 | 0.12 | 1.41 | 1.41 | 96 | 1011.9 |
| 20260509190052 | 66 | 123 | 0.9 | 2.6 | 0.07 | 1.40 | 1.40 | 96 | 1012.3 |
| 20260509185549 | 67 | 44 | 0.0 | 5.2 | 0.05 | 1.39 | 1.39 | 96 | 1011.8 |
| 20260509185045 | 67 | 92 | 1.7 | 6.1 | 0.12 | 1.39 | 1.39 | 96 | 1012.1 |
| 20260509184543 | 67 | 89 | 0.9 | 1.7 | 0.19 | 1.38 | 1.38 | 96 | 1012.0 |
| 20260509184039 | 67 | 102 | 0.9 | 1.7 | 0.14 | 1.36 | 1.36 | 96 | 1012.1 |
| 20260509183534 | 67 | 86 | 2.6 | 2.6 | 0.31 | 1.35 | 1.35 | 96 | 1011.8 |
| 20260509183031 | 67 | 103 | 1.7 | 1.7 | 0.24 | 1.33 | 1.33 | 96 | 1012.4 |
| 20260509182527 | 67 | 55 | 0.0 | 1.7 | 0.17 | 1.30 | 1.30 | 96 | 1012.7 |
| 20260509182024 | 67 | 181 | 1.7 | 2.6 | 0.12 | 1.28 | 1.28 | 96 | 1012.4 |
| 20260509181523 | 67 | 146 | 1.7 | 4.3 | 0.12 | 1.27 | 1.27 | 96 | 1012.0 |
| 20260509181020 | 67 | 153 | 1.7 | 4.3 | 0.12 | 1.26 | 1.26 | 96 | 1011.8 |
| 20260509180515 | 67 | 142 | 1.7 | 2.6 | 0.12 | 1.25 | 1.25 | 96 | 1012.3 |
| 20260509180013 | 67 | 104 | 4.3 | 6.1 | 0.12 | 1.24 | 1.24 | 96 | 1011.9 |
| 20260509175508 | 66 | 120 | 2.6 | 4.3 | 0.07 | 1.23 | 1.23 | 96 | 1011.3 |
| 20260509175005 | 67 | 94 | 2.6 | 5.2 | 0.07 | 1.22 | 1.22 | 96 | 1012.1 |
| 20260509174501 | 67 | 143 | 2.6 | 2.6 | 0.07 | 1.22 | 1.22 | 96 | 1012.3 |
| 20260509173956 | 67 | 147 | 0.9 | 2.6 | 0.00 | 1.21 | 1.21 | 95 | 1011.7 |
| 20260509173451 | 67 | 54 | 1.7 | 1.7 | 0.05 | 1.21 | 1.21 | 95 | 1012.2 |
| 20260509172948 | 67 | 98 | 1.7 | 2.6 | 0.05 | 1.21 | 1.21 | 95 | 1012.0 |
| 20260509172445 | 67 | 171 | 2.6 | 5.2 | 0.00 | 1.20 | 1.20 | 95 | 1011.8 |
| 20260509171940 | 67 | 141 | 3.5 | 4.3 | 0.07 | 1.20 | 1.20 | 95 | 1012.1 |
| 20260509171436 | 67 | 87 | 1.7 | 1.7 | 0.07 | 1.20 | 1.20 | 95 | 1012.2 |
| 20260509170933 | 67 | 87 | 3.5 | 6.1 | 0.00 | 1.19 | 1.19 | 95 | 1011.7 |
| 20260509170429 | 67 | 141 | 3.5 | 11.3 | 0.00 | 1.19 | 1.19 | 95 | 1011.1 |
| 20260509165925 | 67 | 61 | 5.2 | 7.0 | 0.05 | 1.19 | 1.19 | 95 | 1011.7 |
| 20260509165425 | 67 | 84 | 6.1 | 7.8 | 0.05 | 1.19 | 1.19 | 95 | 1012.1 |
| 20260509164920 | 67 | 134 | 2.6 | 4.3 | 0.12 | 1.18 | 1.18 | 95 | 1011.9 |
| 20260509164417 | 67 | 84 | 2.6 | 4.3 | 0.17 | 1.17 | 1.17 | 95 | 1012.1 |
| 20260509163913 | 67 | 147 | 2.6 | 2.6 | 0.19 | 1.16 | 1.16 | 95 | 1012.2 |
| 20260509163410 | 67 | 133 | 2.6 | 5.2 | 0.12 | 1.14 | 1.14 | 95 | 1012.7 |
| 20260509162909 | 67 | 135 | 3.5 | 4.3 | 0.05 | 1.13 | 1.13 | 95 | 1012.6 |
| 20260509162408 | 67 | 92 | 6.1 | 7.8 | 0.00 | 1.12 | 1.12 | 95 | 1012.3 |
| 20260509161903 | 67 | 134 | 3.5 | 4.3 | 0.19 | 1.12 | 1.12 | 95 | 1012.2 |
| 20260509161400 | 67 | 84 | 4.3 | 7.8 | 0.26 | 1.12 | 1.12 | 95 | 1012.0 |
| 20260509160856 | 67 | 88 | 6.1 | 8.7 | 0.00 | 1.08 | 1.08 | 95 | 1012.0 |
| 20260509160351 | 67 | 77 | 4.3 | 7.0 | 0.12 | 1.08 | 1.08 | 95 | 1012.2 |
| 20260509155847 | 67 | 86 | 5.2 | 7.8 | 0.64 | 1.08 | 1.08 | 95 | 1012.4 |
| 20260509155343 | 67 | 107 | 7.0 | 9.6 | 0.66 | 1.05 | 1.05 | 94 | 1012.0 |
| 20260509154840 | 67 | 108 | 5.2 | 8.7 | 0.38 | 0.97 | 0.97 | 94 | 1012.5 |
| 20260509154337 | 67 | 56 | 5.2 | 6.1 | 0.40 | 0.93 | 0.93 | 94 | 1012.4 |
| 20260509153833 | 67 | 139 | 3.5 | 5.2 | 0.12 | 0.88 | 0.88 | 94 | 1012.4 |
| 20260509153330 | 67 | 86 | 2.6 | 4.3 | 0.00 | 0.86 | 0.86 | 94 | 1012.6 |
| 20260509152827 | 67 | 96 | 3.5 | 6.1 | 0.07 | 0.86 | 0.86 | 94 | 1012.4 |
| 20260509152323 | 67 | 82 | 2.6 | 2.6 | 0.14 | 0.86 | 0.86 | 94 | 1012.3 |
| 20260509151821 | 67 | 48 | 3.5 | 4.3 | 0.24 | 0.85 | 0.85 | 94 | 1011.9 |
| 20260509151316 | 66 | 75 | 2.6 | 5.2 | 0.83 | 0.84 | 0.84 | 94 | 1012.3 |
| 20260509150815 | 66 | 55 | 2.6 | 4.3 | 0.66 | 0.80 | 0.80 | 94 | 1012.2 |
| 20260509150312 | 66 | 47 | 0.9 | 5.2 | 0.12 | 0.70 | 0.70 | 94 | 1012.3 |
| 20260509145809 | 66 | 80 | 2.6 | 4.3 | 0.24 | 0.69 | 0.69 | 94 | 1012.4 |
| 20260509145309 | 66 | 119 | 2.6 | 4.3 | 0.42 | 0.68 | 0.68 | 94 | 1012.1 |
| 20260509144806 | 66 | 88 | 5.2 | 8.7 | 0.42 | 0.65 | 0.65 | 94 | 1011.9 |
| 20260509144303 | 66 | 67 | 2.6 | 6.1 | 0.42 | 0.61 | 0.61 | 94 | 1012.1 |
| 20260509143800 | 66 | 66 | 4.3 | 5.2 | 0.24 | 0.58 | 0.58 | 94 | 1012.6 |
| 20260509143258 | 66 | 61 | 2.6 | 7.8 | 0.05 | 0.54 | 0.54 | 94 | 1012.1 |
| 20260509142753 | 66 | 93 | 5.2 | 6.1 | 0.05 | 0.54 | 0.54 | 94 | 1011.9 |
| 20260509142249 | 66 | 88 | 5.2 | 7.0 | 0.07 | 0.53 | 0.53 | 94 | 1012.1 |
| 20260509141745 | 66 | 67 | 1.7 | 4.3 | 0.24 | 0.53 | 0.53 | 94 | 1011.9 |
| 20260509141243 | 66 | 76 | 1.7 | 4.3 | 0.24 | 0.51 | 0.51 | 94 | 1012.0 |
| 20260509140739 | 65 | 83 | 2.6 | 4.3 | 0.12 | 0.48 | 0.48 | 94 | 1012.1 |
| 20260509140236 | 65 | 58 | 0.0 | 0.9 | 0.19 | 0.47 | 0.47 | 94 | 1012.3 |
| 20260509135734 | 65 | 71 | 0.9 | 2.6 | 0.05 | 0.45 | 0.45 | 94 | 1011.9 |
| 20260509135232 | 65 | 63 | 0.9 | 1.7 | 0.00 | 0.44 | 0.44 | 94 | 1012.0 |
| 20260509134728 | 65 | 77 | 1.7 | 6.1 | 0.07 | 0.44 | 0.44 | 94 | 1011.7 |
| 20260509134226 | 65 | 89 | 5.2 | 7.0 | 0.07 | 0.44 | 0.44 | 94 | 1011.8 |
| 20260509133723 | 65 | 65 | 3.5 | 6.1 | 0.00 | 0.43 | 0.43 | 94 | 1011.7 |
| 20260509133219 | 65 | 76 | 1.7 | 4.3 | 0.12 | 0.43 | 0.43 | 94 | 1011.9 |
| 20260509132718 | 65 | 50 | 3.5 | 6.1 | 0.35 | 0.43 | 0.43 | 94 | 1012.0 |
| 20260509132216 | 65 | 58 | 0.9 | 4.3 | 0.66 | 0.41 | 0.41 | 94 | 1012.6 |
| 20260509131713 | 65 | 56 | 4.3 | 7.0 | 0.73 | 0.36 | 0.36 | 94 | 1012.4 |
| 20260509131209 | 65 | 67 | 4.3 | 5.2 | 0.50 | 0.29 | 0.29 | 94 | 1012.9 |
| 20260509130705 | 65 | 3 | 5.2 | 9.6 | 0.42 | 0.23 | 0.23 | 94 | 1012.7 |
| 20260509130201 | 65 | 22 | 6.1 | 11.3 | 0.73 | 0.20 | 0.20 | 94 | 1012.9 |
| 20260509125658 | 65 | 347 | 4.3 | 13.0 | 0.83 | 0.15 | 0.15 | 94 | 1013.1 |
| 20260509125155 | 66 | 290 | 4.3 | 15.6 | 0.42 | 0.07 | 0.07 | 94 | 1012.9 |
| 20260509124652 | 67 | 349 | 13.9 | 19.1 | 0.00 | 0.00 | 0.00 | 94 | 1012.3 |
| 20260509124148 | 68 | 9 | 10.4 | 18.2 | 0.00 | 0.00 | 0.00 | 94 | 1012.2 |
| 20260509123646 | 72 | 326 | 10.4 | 13.0 | 0.00 | 0.00 | 0.00 | 95 | 1011.4 |
| 20260509123143 | 72 | 349 | 0.0 | 0.0 | 0.00 | 0.00 | 0.00 | 95 | 1010.4 |
| 20260509122638 | 71 | 321 | 0.0 | 0.0 | 0.00 | 0.00 | 0.00 | 95 | 1010.1 |
| 20260509122136 | 71 | 321 | 0.0 | 0.9 | 0.00 | 0.00 | 0.00 | 95 | 1010.2 |
| 20260509121632 | 71 | 333 | 0.0 | 0.9 | 0.00 | 0.00 | 0.00 | 95 | 1009.9 |
| 20260509121130 | 71 | 332 | 0.0 | 0.9 | 0.00 | 0.00 | 0.00 | 95 | 1010.0 |
| 20260509120628 | 71 | 53 | 0.9 | 1.7 | 0.00 | 0.00 | 0.00 | 95 | 1009.7 |
| 20260509120126 | 71 | 68 | 0.9 | 0.9 | 0.00 | 0.00 | 0.00 | 95 | 1009.6 |
| 20260509115623 | 71 | 152 | 1.7 | 2.6 | 0.00 | 0.00 | 0.00 | 95 | 1009.4 |
| 20260509115121 | 71 | 153 | 1.7 | 4.3 | 0.00 | 0.00 | 0.00 | 95 | 1009.3 |
| 20260509114619 | 70 | 183 | 1.7 | 2.6 | 0.00 | 0.00 | 0.00 | 95 | 1009.5 |
| 20260509114117 | 71 | 222 | 0.9 | 2.6 | 0.00 | 0.00 | 0.00 | 95 | 1009.7 |
| 20260509113615 | 70 | 186 | 1.7 | 1.7 | 0.00 | 0.00 | 0.00 | 95 | 1009.6 |
| 20260509113112 | 70 | 316 | 0.0 | 1.7 | 0.00 | 0.00 | 0.00 | 95 | 1009.7 |
| 20260509112609 | 70 | 239 | 0.9 | 1.7 | 0.00 | 0.00 | 0.00 | 95 | 1009.4 |
| 20260509112106 | 70 | 264 | 0.9 | 1.7 | 0.00 | 0.00 | 0.00 | 95 | 1009.2 |
| 20260509111603 | 70 | 171 | 0.9 | 1.7 | 0.00 | 0.00 | 0.00 | 95 | 1009.4 |
| 20260509111100 | 70 | 165 | 1.7 | 1.7 | 0.00 | 0.00 | 0.00 | 95 | 1009.2 |
| 20260509110557 | 70 | 131 | 0.9 | 1.7 | 0.00 | 0.00 | 0.00 | 95 | 1009.1 |
| 20260509110054 | 70 | 42 | 0.9 | 0.9 | 0.00 | 0.00 | 0.00 | 95 | 1009.0 |
| 20260509105552 | 70 | 15 | 0.0 | 0.0 | 0.00 | 0.00 | 0.00 | 95 | 1009.2 |
| 20260509105049 | 70 | 345 | 0.0 | 0.0 | 0.00 | 0.00 | 0.00 | 95 | 1009.2 |